Weather Roundup
Issued by NWS Sterling, VA

Home | Current Version | Previous Version | Text Only | Print | Product List | Glossary On
Versions: 1 2 3 4 5 6 7 8 9 10 11 12 13 14 15 16 17 18 19 20 21 22 23 24 25 26 27 28 29 30 31 32 33 34 35 36 37 38 39 40 41 42 43 44 45 46 47 48 49 50
000
NZUS51 KLWX 202312
HRRLWX

HOURLY OBSERVATIONS AROUND THE LWX CWA
700 PM EDT SUN JUN 20 2021

Note: "FAIR" indicates few or no clouds below 12,000 feet
with no significant weather and/or obstructions to visibility.

 * =Non NWS site. Station does not report significant weather
    and/or obstructions to visibility.

...DOWNTOWN AREAS...

CITY           SKY/WX    TMP DP  RH WIND       PRES   REMARKS
WASHINGTON NAT PTSUNNY   86  71  60 S14       29.78R HX  91


...WASHINGTON SUBURBS...

CITY           SKY/WX    TMP DP  RH WIND       PRES   REMARKS
DULLES         PTSUNNY   86  69  56 S12       29.77S HX  90
MANASSAS*      MOSUNNY   87  72  60 S9        29.78R HX  93
LEESBURG*      MOSUNNY   86  70  58 S8G17     29.79R HX  90
GAITHERSBURG*  MOSUNNY   86  71  60 S10       29.80R HX  91
QUANTICO       PTSUNNY   85  73  67 S12       29.79R HX  91
COLLEGE PARK*  MOSUNNY   87  66  50 S6        29.77R

...CENTRAL VIRGINIA...

CITY           SKY/WX    TMP DP  RH WIND       PRES   REMARKS
CULPEPER*      MOSUNNY   87  70  57 S8        29.79S HX  91
CHARLOTTESVILL PTSUNNY   84  68  58 S8        29.81S
WARRENTON*     MOSUNNY   86  68  55 S7        29.79S
ORANGE*        PTSUNNY   81  70  69 S9        29.81R
GORDONSVILLE*  PTSUNNY   82  71  69 S5        29.80S
STAFFORD*      PTSUNNY   86  67  53 S9        29.84R
FREDERICKSBRG* PTSUNNY   85  69  58 S10       29.79R
LOUISA*        PTSUNNY   81  72  73 S3        29.86R
ASHLAND        PTSUNNY   83  70  64 S7        29.83R
RICHMOND       PTSUNNY   82  72  71 S9        29.82R

...NORTHEAST/CENTRAL MARYLAND...

CITY           SKY/WX    TMP DP  RH WIND       PRES   REMARKS
BWI AIRPORT    PTSUNNY   87  72  60 VRB7      29.77R HX  93
ANNAPOLIS      PTSUNNY   84  71  65 S12G17    29.78R
MARTIN AIRPORT SUNNY     82  75  78 SE13      29.79S
WESTMINSTER*   PTSUNNY   90  73  58 SE9       29.79S HX  98
FREDERICK*     SUNNY     91  68  46 S5        29.76S HX  95
FORT MEADE*    MOSUNNY   82  72  69 S5        29.80R

...SOUTHERN MARYLAND...

CITY           SKY/WX    TMP DP  RH WIND       PRES   REMARKS
PATUXENT RIVER PTSUNNY   84  73  69 S10G18    29.80R HX  90
ST MARYS CITY  PTSUNNY   85  71  63 S7        29.80S HX  90
LEONARDTOWN*   PTSUNNY   81  70  69 S6        29.82R

...MARYLAND EASTERN SHORE...

CITY           SKY/WX    TMP DP  RH WIND       PRES   REMARKS
SALISBURY      MOSUNNY   81  71  71 S16       29.83S
CAMBRIDGE*     SUNNY     82  73  74 S12G20    29.82R
OCEAN CITY     MOSUNNY   80  73  79 SW14G24   29.84S

...SHENANDOAH VALLEY...

CITY           SKY/WX    TMP DP  RH WIND       PRES   REMARKS
MARTINSBURG    PTSUNNY   84  66  54 S7        29.75S
HAGERSTOWN APT PTSUNNY   88  66  48 S13       29.76S HX  90
STAUNTON*      MOSUNNY   82  69  65 S7        29.85R
WINCHESTER*    MOSUNNY   82  70  65 S9G16     29.77R
FRONT ROYAL*   MOSUNNY   84  70  61 S6        29.78R
LURAY*         MOSUNNY   82  68  61 S5        29.79R
NEW MARKET*    MOSUNNY   84  71  63 S8        29.78R
WAYNESBORO*    MOSUNNY   80  69  69 S9        29.85R

...APPALACHIANS...

CITY           SKY/WX    TMP DP  RH WIND       PRES   REMARKS
PETERSBURG WV* PTSUNNY   83  73  71 NW6       29.79R
CUMBERLAND*    CLOUDY    86  69  57 SE5       29.80R HX  90
OAKLAND*       CLOUDY    75  63  64 CALM      29.90R
ELKINS         MOSUNNY   82  61  48 CALM      29.85S
BEDFORD PA*    MOSUNNY   86  66  51 SW5       29.77S
JOHNSTOWN      MOSUNNY   80  64  58 SW8       29.83S
ALTOONA        MOSUNNY   86  65  49 W9        29.79S

...SOUTHERN PENNSYLVANIA/DELAWARE...

CITY           SKY/WX    TMP DP  RH WIND       PRES   REMARKS
YORK           PTSUNNY   86  68  54 S6G24     29.76R
WILMINGTON     PTSUNNY   82  71  69 S14       29.79R

...MARINE OBSERVATIONS...

STATION/POSITION TIME  TEMP    WIND        PRES
                       AIR SEA DIR/SP/G
                 (UTC) (F)     (DEG/KT/KT) (MB)
THOMAS PT LIGHT  2300   81 74  140/ 16/ 17 1009.3R
TOLCHESTER       2230   85 79  170/  6/ 10 1008.6R
COVE POINT       2230   83     140/ 12/ 19 1009.0R
GOOSES REEF      2254   77 78  160/ 12/ 14 1010.6R
BALT HARBOR      2230   82 76  170/  5/ 10 1007.7R
BALT KEY BRIDGE  2230   83     160/ 15/ 16 1007.9R
WASH DC CHANNEL  2230   86 79  180/ 11/ 14 1008.3R
DAHLGREN         2230   85 83  200/ 10/ 12 1008.2R
LEWISETTA        2230   82 79  220/  9/ 11 1009.4F
SOLOMONS ISLAND  2230   82 76  200/ 13/ 19 1008.9R
PINEY POINT      2230          180/  3/ 10   N/A
CAMBRIDGE PIER   2230   85 80  180/ 11/ 15 1009.0F
BISHOPS HEAD     2230   80 83  190/ 19/ 23 1009.1F
CHESAPEAKE CITY  2230   85 79  150/  4/  6 1008.4R




USA.gov is the U.S. government's official web portal to all federal, state and local government web resources and services.